TimeEST,TemperatureF,Dew PointF,Humidity,Sea Level PressureIn,VisibilityMPH,Wind Direction,Wind SpeedMPH,Gust SpeedMPH,PrecipitationIn,Events,Conditions,WindDirDegrees,DateUTC
12:51 AM,43.0,32.0,65,30.10,10.0,NNW,3.5,-,N/A,,Clear,340,2013-02-21 05:51:00
1:51 AM,41.0,28.9,62,30.09,10.0,NNW,3.5,-,N/A,,Clear,330,2013-02-21 06:51:00
2:51 AM,41.0,30.0,65,30.09,10.0,Variable,4.6,-,N/A,,Clear,0,2013-02-21 07:51:00
3:51 AM,39.9,33.1,77,30.10,10.0,NNE,5.8,-,N/A,,Clear,30,2013-02-21 08:51:00
4:51 AM,39.0,30.9,73,30.12,10.0,NNE,8.1,-,N/A,,Clear,20,2013-02-21 09:51:00
5:51 AM,39.0,30.0,70,30.14,10.0,NNE,6.9,-,N/A,,Clear,30,2013-02-21 10:51:00
6:51 AM,37.9,30.0,73,30.15,10.0,NNE,6.9,-,N/A,,Clear,30,2013-02-21 11:51:00
7:51 AM,39.0,30.0,70,30.18,10.0,NNE,6.9,-,N/A,,Clear,20,2013-02-21 12:51:00
8:51 AM,41.0,28.9,62,30.20,10.0,Variable,5.8,-,N/A,,Clear,0,2013-02-21 13:51:00
9:51 AM,42.1,28.0,58,30.19,10.0,Variable,4.6,-,N/A,,Clear,0,2013-02-21 14:51:00
10:51 AM,43.0,26.1,51,30.19,10.0,Variable,5.8,-,N/A,,Clear,0,2013-02-21 15:51:00
11:51 AM,43.0,24.1,47,30.18,10.0,NNW,8.1,-,N/A,,Clear,340,2013-02-21 16:51:00
12:51 PM,45.0,24.1,44,30.16,10.0,Variable,4.6,-,N/A,,Clear,0,2013-02-21 17:51:00
1:51 PM,46.0,26.1,46,30.15,10.0,Variable,3.5,-,N/A,,Clear,0,2013-02-21 18:51:00
2:51 PM,44.1,26.1,49,30.14,10.0,NE,6.9,-,N/A,,Clear,40,2013-02-21 19:51:00
3:51 PM,45.0,26.1,48,30.14,10.0,NNE,5.8,-,N/A,,Clear,30,2013-02-21 20:51:00
4:51 PM,43.0,26.1,51,30.14,10.0,NNE,4.6,-,N/A,,Clear,30,2013-02-21 21:51:00
5:51 PM,39.9,28.9,65,30.17,10.0,NE,8.1,-,N/A,,Clear,50,2013-02-21 22:51:00
6:51 PM,39.0,28.9,67,30.21,10.0,NE,4.6,-,N/A,,Clear,40,2013-02-21 23:51:00
7:51 PM,39.0,30.0,70,30.24,10.0,Variable,4.6,-,N/A,,Clear,0,2013-02-22 00:51:00
8:51 PM,39.9,30.0,68,30.24,10.0,NE,9.2,-,N/A,,Clear,40,2013-02-22 01:51:00
9:51 PM,41.0,28.9,62,30.27,10.0,NNE,6.9,-,N/A,,Clear,30,2013-02-22 02:51:00
10:51 PM,41.0,28.0,60,30.26,10.0,NNE,8.1,17.3,N/A,,Clear,30,2013-02-22 03:51:00
11:51 PM,41.0,27.0,57,30.25,10.0,NE,12.7,23.0,N/A,,Clear,40,2013-02-22 04:51:00